星链-36900(STARLINK-36900)

导读

STARLINK-36900(NORAD编号67973)是美国太空探索技术公司(SpaceX)部署的星链(Starlink)星座卫星,属于Starlink V1.0卫星平台。该卫星运行在近地轨道,轨道倾角约70度,近地点高度约570公里,远地点高度约574公里,绕行周期约96分钟。 作为星链全球卫星互联网项目的组成部分,它配备相控阵天线与星间激光链路技术,可为全球尤其是偏远区域提供高速低延迟互联网接入,同时也支持军事、航空等领域通信服务,助力缩小全球数字鸿沟。卫星采用氩气离子推进系统,任务结束后可自主脱轨减少空间碎片。

基本信息
目录编号:
67973
目录名称:
STARLINK-36900
国际标识:
2026-038N
轨道中心:
EARTH
卫星名称:
星链-36900
卫星全名:
星链-36900(STARLINK-36900)
卫星状态:
在轨 (已飞行191 天)
发射日期:
2026-02-25 UTC
国别 :
美国 (US)
星等 :
--
轨道信息
数据来源 国际轨道数据
星历时间: 2026-09-04T02:57:00+0800
10小时前
查看轨道信息
半长轴: 6843.69km
偏心率: 0.0001429
轨道倾角: 97.286°
近地点辐角 101.101°
升交点赤经 255.383°
平近点角 259.039°
近地点: 464.575km
远地点: 466.531km
周期: 93.906分钟
每日圈数: 15.334419
详细信息
固有亮度:
5
最大亮度:
2.5
卫星平台:
Starlink V1.0
覆盖范围:
全球
运营商:
太空探索技术公司
运营商所在国:
美国
制造商(研发单位):
太空探索技术公司
制造商所在国:
美国
使用方式:
暂无
卫星简介
Starlink 计划是 SpaceX 推出的全球卫星互联网项目,通过发射低轨道卫星,为全球尤其是偏远地区提供高速、低延迟的互联网服务。自 2019 年起,Starlink 已部署数千颗卫星,旨在缩小全球数字鸿沟,推动互联网普及。该项目还为军事、航空等行业提供通信支持,带来广泛经济效益。
2D轨道图
3D轨道图
轨道高度分析图
轨道倾角分析图
轨道综合分析图
查看轨道综合分析图
交会数据列表
事件ID 空间交会对象 最接近时刻(TCA) 交会距离 交会风险概率(CRP) 交会风险指数(CRI) 操作
CDM_260901-201106-619906-797321
2026-09-01T
20:11:55+0000
2.391 km
极远距离
1.711123E-6 低风险 0.4
CDM_260905-141205-304906-797321
2026-09-05T
14:12:11+0000
2.856 km
极远距离
1.437408E-6 低风险 0.38
CDM_260905-163305-304906-797321
2026-09-05T
16:33:08+0000
2.943 km
极远距离
1.383641E-6 低风险 0.38
CDM_260901-222905-937706-797321
2026-09-01T
22:29:43+0000
2.948 km
极远距离
1.335071E-6 低风险 0.38
CDM_260830-090605-179106-797321
2026-08-30T
09:06:41+0000
2.275 km
极远距离
1.299622E-6 低风险 0.37
CDM_260903-114004-857406-797321
2026-09-03T
11:40:02+0000
2.784 km
极远距离
1.295171E-6 低风险 0.37
CDM_260830-143105-740806-797321
2026-08-30T
14:31:41+0000
2.854 km
极远距离
1.23756E-6 低风险 0.37